Le nostre stazioni meteo in Italia

Pubblicità
Il mio iltempo24.it
Dalwhinnie, Gran Bretagna (99005): Temperatura & dewpoint: 14.06.2019 23:00:00 - 20.06.2019 23:00:00 (BST)Dalwhinnie, Gran Bretagna (99005): precipitazioni: 14.06.2019 23:00:00 - 20.06.2019 23:00:00 (BST)
Data & Tempo tt [°C] td [°C] rr [mm]
20.06.2019 23:00:00 - - -
20.06.2019 22:00:00 8,2 4,2 0,0
20.06.2019 21:00:00 8,9 4,5 0,0
20.06.2019 20:00:00 8,5 5,2 0,0
20.06.2019 19:00:00 10,5 4,6 0,0
20.06.2019 18:00:00 10,7 4,4 0,0
20.06.2019 17:00:00 10,8 6,1 0,0
20.06.2019 16:00:00 12,3 6,2 0,0
20.06.2019 15:00:00 11,9 5,4 0,2
20.06.2019 14:00:00 10,2 5,7 0,0
20.06.2019 13:00:00 10,5 6,4 0,0
20.06.2019 12:00:00 10,5 5,6 0,0
20.06.2019 11:00:00 8,7 6,7 0,2
20.06.2019 10:00:00 9,2 5,5 0,0
20.06.2019 09:00:00 8,6 5,2 0,0
20.06.2019 08:00:00 8,4 4,8 0,0
20.06.2019 07:00:00 7,9 5,7 0,0
20.06.2019 06:00:00 7,3 6,1 0,2
20.06.2019 05:00:00 7,0 5,5 0,0
20.06.2019 04:00:00 7,2 5,6 0,0
20.06.2019 03:00:00 7,4 5,9 0,6
20.06.2019 02:00:00 8,0 6,4 0,0
20.06.2019 01:00:00 8,8 6,4 0,0
20.06.2019 00:00:00 9,1 6,3 0,0
19.06.2019 23:00:00 9,4 6,4 0,0
19.06.2019 22:00:00 10,0 6,5 0,0
19.06.2019 21:00:00 10,6 7,0 0,0
19.06.2019 20:00:00 11,2 7,1 0,0
19.06.2019 19:00:00 12,2 5,6 0,0
19.06.2019 18:00:00 13,0 6,3 0,0
19.06.2019 17:00:00 13,4 7,4 0,2
19.06.2019 16:00:00 11,5 8,4 0,0
19.06.2019 15:00:00 11,0 8,2 0,2
19.06.2019 14:00:00 12,3 8,1 0,0
19.06.2019 13:00:00 11,0 7,6 0,0
19.06.2019 12:00:00 11,5 6,2 0,0
19.06.2019 11:00:00 12,1 7,1 0,0
19.06.2019 10:00:00 10,9 6,4 0,0
19.06.2019 09:00:00 11,0 7,4 0,0
19.06.2019 08:00:00 9,8 7,9 0,0
19.06.2019 07:00:00 9,0 7,5 0,0
19.06.2019 06:00:00 9,0 7,1 0,0
19.06.2019 05:00:00 8,8 6,9 0,0
19.06.2019 04:00:00 8,9 6,9 0,0
19.06.2019 03:00:00 9,2 6,9 0,0
19.06.2019 02:00:00 9,2 7,2 0,0
19.06.2019 01:00:00 9,5 7,3 0,0
19.06.2019 00:00:00 9,6 7,7 0,0
18.06.2019 23:00:00 9,8 7,9 0,0
18.06.2019 22:00:00 10,2 7,6 0,0
18.06.2019 21:00:00 10,8 6,8 0,0
18.06.2019 20:00:00 10,8 7,2 0,0
18.06.2019 19:00:00 11,7 6,7 0,0
18.06.2019 18:00:00 11,8 6,9 0,0
18.06.2019 17:00:00 13,0 7,0 0,0
18.06.2019 16:00:00 12,5 6,4 0,0
18.06.2019 15:00:00 12,0 6,6 0,0
18.06.2019 14:00:00 11,6 7,5 0,0
18.06.2019 13:00:00 12,1 7,3 0,0
18.06.2019 12:00:00 11,5 7,8 0,0
18.06.2019 11:00:00 11,0 8,5 0,0
18.06.2019 10:00:00 9,7 8,1 0,2
18.06.2019 09:00:00 9,1 7,6 0,0
18.06.2019 08:00:00 8,7 6,0 0,2
18.06.2019 07:00:00 9,7 5,1 0,0
18.06.2019 06:00:00 9,4 5,9 0,0
18.06.2019 05:00:00 9,0 6,3 0,0
18.06.2019 04:00:00 9,0 6,7 0,0
18.06.2019 03:00:00 8,9 6,6 0,0
18.06.2019 02:00:00 8,9 6,7 0,0
18.06.2019 01:00:00 8,5 6,6 0,0
18.06.2019 00:00:00 8,7 5,9 0,0
17.06.2019 23:00:00 9,0 6,8 0,0
17.06.2019 22:00:00 8,7 6,6 0,0
17.06.2019 21:00:00 10,0 6,4 0,0
17.06.2019 20:00:00 10,2 6,7 0,0
17.06.2019 19:00:00 10,1 7,4 0,2
17.06.2019 18:00:00 10,0 7,9 0,2
17.06.2019 17:00:00 10,5 8,4 0,8
17.06.2019 16:00:00 10,5 8,4 0,4
17.06.2019 15:00:00 10,1 8,6 1,0
17.06.2019 14:00:00 10,6 8,7 0,6
17.06.2019 13:00:00 11,6 8,8 0,0
17.06.2019 12:00:00 10,5 8,3 0,2
17.06.2019 11:00:00 11,3 7,9 0,0
17.06.2019 10:00:00 10,4 7,6 0,2
17.06.2019 09:00:00 9,0 7,6 0,0
17.06.2019 08:00:00 8,7 7,4 0,2
17.06.2019 07:00:00 8,7 7,2 0,4
17.06.2019 06:00:00 8,4 7,5 1,6
17.06.2019 05:00:00 8,4 7,1 0,2
17.06.2019 04:00:00 7,7 6,7 0,2
17.06.2019 03:00:00 8,3 7,1 1,2
17.06.2019 02:00:00 8,8 7,0 3,6
17.06.2019 01:00:00 9,3 7,3 0,4
17.06.2019 00:00:00 9,6 7,2 0,0
16.06.2019 23:00:00 9,7 7,5 0,2
16.06.2019 22:00:00 9,3 7,7 0,6
16.06.2019 21:00:00 9,6 7,3 0,2
16.06.2019 20:00:00 10,4 7,0 0,0
16.06.2019 19:00:00 10,2 7,5 0,0
16.06.2019 18:00:00 10,6 7,6 0,4
16.06.2019 17:00:00 11,4 6,0 0,0
16.06.2019 16:00:00 9,3 6,8 1,6
16.06.2019 15:00:00 9,7 4,5 0,0
16.06.2019 14:00:00 11,7 4,2 0,0
16.06.2019 13:00:00 10,4 4,7 0,0
16.06.2019 12:00:00 10,9 5,0 0,0
16.06.2019 11:00:00 11,5 5,2 0,0
16.06.2019 10:00:00 11,2 5,2 0,0
16.06.2019 09:00:00 10,3 5,7 0,0
16.06.2019 08:00:00 9,6 5,7 0,0
16.06.2019 07:00:00 8,6 5,0 0,0
16.06.2019 06:00:00 8,1 5,5 0,0
16.06.2019 05:00:00 8,5 5,0 0,0
16.06.2019 04:00:00 8,5 5,1 0,0
16.06.2019 03:00:00 8,4 5,8 0,0
16.06.2019 02:00:00 8,8 6,4 0,0
16.06.2019 01:00:00 9,0 6,1 0,0
16.06.2019 00:00:00 9,9 5,7 0,0
15.06.2019 23:00:00 9,9 5,9 0,0
15.06.2019 22:00:00 11,7 7,8 0,0
15.06.2019 21:00:00 12,1 8,8 0,0
15.06.2019 20:00:00 12,7 8,6 0,0
15.06.2019 19:00:00 14,0 7,3 0,0
15.06.2019 18:00:00 13,7 7,6 0,0
15.06.2019 17:00:00 14,4 6,8 0,0
15.06.2019 16:00:00 13,2 6,6 0,0
15.06.2019 15:00:00 13,4 5,6 0,0
15.06.2019 14:00:00 13,3 5,8 0,0
15.06.2019 13:00:00 13,5 5,7 0,0
15.06.2019 12:00:00 14,0 6,7 0,0
15.06.2019 11:00:00 12,5 7,1 0,0
15.06.2019 10:00:00 11,8 7,4 0,0
15.06.2019 09:00:00 11,3 6,7 0,0
15.06.2019 08:00:00 10,1 7,9 0,2
15.06.2019 07:00:00 10,2 7,9 0,0
15.06.2019 06:00:00 9,2 7,3 0,0
15.06.2019 05:00:00 8,8 6,7 0,2
15.06.2019 04:00:00 9,3 6,4 0,0
15.06.2019 03:00:00 8,9 5,2 0,0
15.06.2019 02:00:00 9,0 5,2 0,0
15.06.2019 01:00:00 9,0 5,6 0,2
15.06.2019 00:00:00 9,7 5,7 0,0
14.06.2019 23:00:00 9,3 4,8 0,0

tt = Temperatura
td = dewpoint
rr = precipitazioni

Stazioni seguenti

WeatherPro
AMSI
MeteoEarth